#timestamp,LO_Frequency,Hit,Temp,Hum 
1480489215.3,286046892.9,N,0.0,0.0
1480489235.2,286046893.3,N,0.0,0.0
1480489255.0,286046893.8,N,0.0,0.0
1480489255.9,286046893.8,N,0.0,0.0
1480489275.8,286046893.7,N,0.0,0.0
1480489295.6,286046893.0,N,0.0,0.0
1480489315.4,286046893.2,N,0.0,0.0
1480489335.3,286046893.4,N,0.0,0.0
1480489355.1,286046893.8,N,0.0,0.0
1480489375.8,286046892.6,N,0.0,0.0
1480489395.7,286046893.1,N,0.0,0.0
1480489415.5,286046893.3,N,0.0,0.0
1480489435.4,286046893.9,N,0.0,0.0
1480489455.2,286046893.8,N,0.0,0.0
1480489475.0,286046891.3,N,0.0,0.0
1480489475.9,286046891.3,N,0.0,0.0
1480489495.8,286046892.3,N,0.0,0.0
1480489515.6,286046892.0,N,0.0,0.0
1480489535.5,286046891.4,N,0.0,0.0
1480489555.3,286046892.1,N,0.0,0.0
1480489575.1,286046891.2,N,0.0,0.0
1480489595.9,286046891.2,N,0.0,0.0
1480489615.7,286046891.0,N,0.0,0.0
1480489635.5,286046889.7,N,0.0,0.0
1480489655.4,286046889.5,N,0.0,0.0
1480489675.2,286046889.4,N,0.0,0.0
1480489695.1,286046892.0,N,0.0,0.0
1480489696.0,286046892.0,N,0.0,0.0
1480489715.8,286046892.2,N,0.0,0.0
1480489735.6,286046889.4,N,0.0,0.0
1480489755.5,286046889.6,N,0.0,0.0
1480489775.3,286046892.3,N,0.0,0.0
1480489795.2,286046892.0,N,0.0,0.0
1480489815.9,286046892.2,N,0.0,0.0
1480489835.7,286046889.3,N,0.0,0.0
1480489855.6,286046892.2,N,0.0,0.0
1480489875.4,286046892.4,N,0.0,0.0
1480489895.3,286046892.0,N,0.0,0.0
1480489915.1,286046889.5,N,0.0,0.0
1480489916.0,286046889.5,N,0.0,0.0
1480489935.8,286046889.4,N,0.0,0.0
1480489955.7,286046890.7,N,0.0,0.0
1480489975.5,286046890.7,N,0.0,0.0
1480489995.4,286046889.9,N,0.0,0.0
1480490015.2,286046889.3,N,0.0,0.0
1480490035.0,286046889.6,N,0.0,0.0
1480490035.9,286046889.6,N,0.0,0.0
1480490055.8,286046889.6,N,0.0,0.0
1480490075.6,286046889.8,N,0.0,0.0
1480490095.5,286046889.3,N,0.0,0.0
1480490115.3,286046889.8,N,0.0,0.0
1480490135.1,286046889.6,N,0.0,0.0
1480490155.9,286046892.3,N,0.0,0.0
1480490175.7,286046891.2,N,0.0,0.0
1480490195.5,286046889.3,N,0.0,0.0
1480490215.4,286046892.4,N,0.0,0.0
1480490235.2,286046890.1,N,0.0,0.0
1480490255.1,286046890.2,N,0.0,0.0
1480490256.0,286046890.2,N,0.0,0.0
1480490275.8,286046890.4,N,0.0,0.0
1480490295.6,286046888.2,N,0.0,0.0
1480490315.5,286046890.4,N,0.0,0.0
1480490335.3,286046890.2,N,0.0,0.0
1480490355.2,286046887.8,N,0.0,0.0
1480490375.9,286046890.5,N,0.0,0.0
1480490395.7,286046890.2,N,0.0,0.0
1480490415.6,286046890.8,N,0.0,0.0
1480490435.4,286046888.4,N,0.0,0.0
1480490455.3,286046887.8,N,0.0,0.0
1480490475.1,286046890.4,N,0.0,0.0
1480490476.0,286046890.4,N,0.0,0.0
1480490495.8,286046889.3,N,0.0,0.0
1480490515.7,286046890.0,N,0.0,0.0
1480490535.5,286046890.3,N,0.0,0.0
1480490555.3,286046890.7,N,0.0,0.0
1480490575.2,286046890.2,N,0.0,0.0
1480490595.0,286046887.8,N,0.0,0.0
1480490595.9,286046887.8,N,0.0,0.0
1480490615.8,286046888.0,N,0.0,0.0
1480490635.6,286046888.9,N,0.0,0.0
1480490655.4,286046888.2,N,0.0,0.0
1480490675.3,286046889.0,N,0.0,0.0
1480490695.1,286046888.5,N,0.0,0.0
1480490715.9,286046886.1,N,0.0,0.0
1480490735.7,286046886.1,N,0.0,0.0
1480490755.5,286046887.0,N,0.0,0.0
1480490775.4,286046887.3,N,0.0,0.0
1480490795.2,286046886.7,N,0.0,0.0
1480490815.0,286046888.0,N,0.0,0.0
1480490816.0,286046888.0,N,0.0,0.0
1480490835.8,286046888.8,N,0.0,0.0
1480490855.6,286046889.1,N,0.0,0.0
1480490875.5,286046886.1,N,0.0,0.0
1480490895.3,286046888.5,N,0.0,0.0
1480490915.1,286046888.9,N,0.0,0.0
1480490935.9,286046888.7,N,0.0,0.0
1480490955.7,286046889.0,N,0.0,0.0
1480490975.6,286046888.6,N,0.0,0.0
1480490995.4,286046889.1,N,0.0,0.0
1480491015.2,286046886.2,N,0.0,0.0
1480491035.1,286046886.2,N,0.0,0.0
1480491036.0,286046886.2,N,0.0,0.0
1480491055.8,286046888.4,N,0.0,0.0
1480491075.7,286046886.1,N,0.0,0.0
1480491095.5,286046886.3,N,0.0,0.0
1480491115.3,286046887.3,N,0.0,0.0
1480491135.2,286046886.4,N,0.0,0.0
1480491155.0,286046884.9,N,0.0,0.0
1480491155.9,286046884.9,N,0.0,0.0
1480491175.8,286046884.8,N,0.0,0.0
1480491195.6,286046885.3,N,0.0,0.0
1480491215.4,286046884.7,N,0.0,0.0
1480491235.3,286046885.7,N,0.0,0.0
1480491255.1,286046885.1,N,0.0,0.0
1480491275.9,286046885.8,N,0.0,0.0
1480491295.7,286046884.8,N,0.0,0.0
1480491315.5,286046885.9,N,0.0,0.0
1480491335.4,286046886.0,N,0.0,0.0
1480491355.2,286046886.0,N,0.0,0.0
1480491375.1,286046885.5,N,0.0,0.0
1480491376.0,286046885.5,N,0.0,0.0
1480491395.8,286046885.9,N,0.0,0.0
1480491415.6,286046885.6,N,0.0,0.0
1480491435.5,286046885.5,N,0.0,0.0
1480491455.3,286046884.5,N,0.0,0.0
1480491475.1,286046885.4,N,0.0,0.0
1480491495.9,286046885.8,N,0.0,0.0
1480491515.7,286046885.4,N,0.0,0.0
1480491535.6,286046885.8,N,0.0,0.0
1480491555.4,286046883.8,N,0.0,0.0
1480491575.2,286046883.6,N,0.0,0.0
1480491595.1,286046883.7,N,0.0,0.0
1480491596.0,286046883.7,N,0.0,0.0
1480491615.8,286046883.6,N,0.0,0.0
1480491635.7,286046884.3,N,0.0,0.0
1480491655.5,286046884.2,N,0.0,0.0
1480491675.3,286046881.3,N,0.0,0.0
1480491695.2,286046882.1,N,0.0,0.0
1480491715.0,286046882.3,N,0.0,0.0
1480491715.9,286046882.3,N,0.0,0.0
1480491735.8,286046882.5,N,0.0,0.0
1480491755.6,286046882.4,N,0.0,0.0
1480491775.4,286046882.1,N,0.0,0.0
1480491795.3,286046882.6,N,0.0,0.0
1480491815.1,286046880.1,N,0.0,0.0
1480491835.9,286046882.4,N,0.0,0.0
1480491855.7,286046882.0,N,0.0,0.0
1480491875.5,286046882.4,N,0.0,0.0
1480491895.4,286046882.4,N,0.0,0.0
1480491915.2,286046879.9,N,0.0,0.0
1480491935.0,286046879.7,N,0.0,0.0
1480491935.9,286046879.7,N,0.0,0.0
1480491955.8,286046878.2,N,0.0,0.0
1480491975.6,286046881.1,N,0.0,0.0
1480491995.5,286046878.1,N,0.0,0.0
1480492015.3,286046880.7,N,0.0,0.0
1480492035.1,286046878.1,N,0.0,0.0
1480492055.9,286046878.2,N,0.0,0.0
1480492075.7,286046881.1,N,0.0,0.0
1480492095.6,286046880.2,N,0.0,0.0
1480492115.4,286046880.7,N,0.0,0.0
1480492135.2,286046881.1,N,0.0,0.0
1480492155.1,286046881.2,N,0.0,0.0
1480492156.0,286046881.2,N,0.0,0.0
1480492175.8,286046881.0,N,0.0,0.0
1480492195.7,286046878.5,N,0.0,0.0
1480492215.5,286046878.6,N,0.0,0.0
1480492235.3,286046878.2,N,0.0,0.0
1480492255.2,286046881.2,N,0.0,0.0
1480492275.9,286046878.8,N,0.0,0.0
1480492295.7,286046878.9,N,0.0,0.0
1480492315.6,286046879.1,N,0.0,0.0
1480492335.4,286046878.4,N,0.0,0.0
1480492355.3,286046879.6,N,0.0,0.0
1480492375.1,286046876.5,N,0.0,0.0
1480492376.0,286046876.5,N,0.0,0.0
1480492395.8,286046879.5,N,0.0,0.0
1480492415.7,286046879.1,N,0.0,0.0
1480492435.5,286046877.0,N,0.0,0.0
1480492455.3,286046877.0,N,0.0,0.0
1480492475.2,286046877.1,N,0.0,0.0
1480492495.0,286046876.7,N,0.0,0.0
1480492495.9,286046876.7,N,0.0,0.0
1480492515.8,286046876.7,N,0.0,0.0
1480492535.6,286046876.8,N,0.0,0.0
1480492555.4,286046876.8,N,0.0,0.0
1480492575.3,286046877.0,N,0.0,0.0
1480492595.1,286046876.9,N,0.0,0.0
1480492615.9,286046876.7,N,0.0,0.0
1480492635.7,286046877.4,N,0.0,0.0
1480492655.5,286046876.7,N,0.0,0.0
1480492675.4,286046875.0,N,0.0,0.0
1480492695.2,286046875.3,N,0.0,0.0
1480492715.1,286046875.4,N,0.0,0.0
1480492716.0,286046875.4,N,0.0,0.0
1480492735.8,286046877.8,N,0.0,0.0
1480492755.6,286046877.9,N,0.0,0.0
1480492775.5,286046875.3,N,0.0,0.0
1480492795.3,286046875.4,N,0.0,0.0
